Meadow Lake, CO

11:42 AM MDT on October 18, 2017 (GMT -0600)
Meadow Lake

Weather History for KFLY - May, 2013

Change the Weather History Date:

Monday, May 13, 2013

  Actual Average (KCOS) Record (KCOS)
Temperature  
Mean Temperature 62 °F -  
Max Temperature 80 °F 67 °F 84 °F (1941)
Min Temperature 46 °F 39 °F 24 °F (1953)
Degree Days  
Heating Degree Days 2    
Growing Degree Days 12 (Base 50)    
Moisture  
Dew Point 32 °F    
Average Humidity 33    
Maximum Humidity 59    
Minimum Humidity 15    
Precipitation  
Precipitation 0.00 in - - ()
Sea Level Pressure  
Sea Level Pressure 30.28 in    
Wind  
Wind Speed 9 mph (WNW)    
Max Wind Speed 17 mph    
Max Gust Speed 32 mph    
Visibility 10 miles    
Events      
Averages and records for this station are not official NWS values.
T = Trace of Precipitation, MM = Missing Value Source: NWS Daily Summary

Daily Weather History Graph

Daily Weather History Graph

Search for Another Location

Airport or City:

Trip Planner

Search our weather history database for the weather conditions in past years. The results will help you decide how hot, cold, wet, or windy it might be!

Date:

Astronomy

May. 13, 2013 Rise Set
Actual Time 5:47 AM MDT 8:02 PM MDT
Civil Twilight 5:17 AM MDT 8:32 PM MDT
Nautical Twilight 4:40 AM MDT 9:09 PM MDT
Astronomical Twilight 4:00 AM MDT 9:49 PM MDT
Moon 8:35 AM MDT (5/13) 11:13 PM MDT (5/13)
Length of Visible Light 15h 15m
Length of Day
14h 15m
Waxing Crescent, 12% of the Moon is Illuminated
May 13
Waxing Crescent
May 17
First Quarter
May 24
Full
May 31
Last Quarter
Jun 8
New

Hourly Weather History & Observations

Time (MDT) Temp. Dew Point Humidity Pressure Visibility Wind Dir Wind Speed Gust Speed Precip Events Conditions
12:11 AM 52.9 °F 33.6 °F 48% 30.29 in 10.0 mi WSW 8.1 mph - N/A   Clear
12:31 AM 52.9 °F 32.7 °F 46% 30.29 in 10.0 mi WSW 8.1 mph - N/A   Clear
12:51 AM 53.1 °F 33.1 °F 47% 30.29 in 10.0 mi WSW 8.1 mph - N/A   Clear
1:11 AM 52.7 °F 32.0 °F 45% 30.29 in 10.0 mi WSW 6.9 mph - N/A   Clear
1:31 AM 52.7 °F 31.8 °F 45% 30.28 in 10.0 mi WSW 6.9 mph - N/A   Clear
1:51 AM 52.0 °F 32.0 °F 47% 30.28 in 10.0 mi WSW 9.2 mph - N/A   Clear
2:11 AM 52.7 °F 30.7 °F 43% 30.28 in 10.0 mi West 6.9 mph - N/A   Clear
2:31 AM 51.3 °F 31.1 °F 46% 30.27 in 10.0 mi West 6.9 mph - N/A   Clear
2:51 AM 52.3 °F 30.2 °F 43% 30.27 in 10.0 mi West 8.1 mph - N/A   Clear
3:11 AM 51.1 °F 30.9 °F 46% 30.27 in 10.0 mi West 6.9 mph - N/A   Clear
3:31 AM 48.7 °F 32.2 °F 53% 30.26 in 10.0 mi NW 5.8 mph - N/A   Clear
3:51 AM 46.8 °F 32.2 °F 57% 30.26 in 10.0 mi WNW 6.9 mph - N/A   Clear
4:11 AM 46.8 °F 32.7 °F 58% 30.26 in 10.0 mi NW 8.1 mph - N/A   Clear
4:31 AM 46.9 °F 33.3 °F 59% 30.26 in 10.0 mi North 6.9 mph - N/A   Clear
4:51 AM 48.6 °F 32.4 °F 54% 30.26 in 10.0 mi NNW 9.2 mph - N/A   Clear
5:11 AM 52.7 °F 31.5 °F 44% 30.26 in 10.0 mi NNW 9.2 mph - N/A   Clear
5:31 AM 53.4 °F 30.6 °F 42% 30.26 in 10.0 mi NNW 11.5 mph - N/A   Clear
5:51 AM 52.9 °F 31.3 °F 44% 30.26 in 10.0 mi WNW 9.2 mph - N/A   Clear
6:11 AM 52.9 °F 31.6 °F 44% 30.27 in 10.0 mi NNW 9.2 mph - N/A   Clear
6:31 AM 56.5 °F 30.9 °F 38% 30.28 in 10.0 mi NW 9.2 mph - N/A   Clear
6:51 AM 58.8 °F 31.1 °F 35% 30.29 in 10.0 mi NW 8.1 mph - N/A   Clear
7:11 AM 61.7 °F 31.3 °F 32% 30.30 in 10.0 mi NW 9.2 mph - N/A   Clear
7:31 AM 64.4 °F 31.5 °F 29% 30.30 in 10.0 mi NW 11.5 mph 18.4 mph N/A   Clear
7:51 AM 66.4 °F 31.3 °F 27% 30.30 in 10.0 mi WNW 12.7 mph 20.7 mph N/A   Clear
8:11 AM 68.2 °F 31.3 °F 25% 30.31 in 10.0 mi NW 16.1 mph 19.6 mph N/A   Clear
8:31 AM 70.7 °F 30.7 °F 23% 30.31 in 10.0 mi NW 17.3 mph 21.9 mph N/A   Clear
8:51 AM 72.1 °F 29.8 °F 21% 30.32 in 10.0 mi NNW 15.0 mph 20.7 mph N/A   Clear
9:11 AM 72.7 °F 29.5 °F 20% 30.32 in 10.0 mi North 15.0 mph 19.6 mph N/A   Clear
9:31 AM 73.4 °F 29.7 °F 20% 30.32 in 10.0 mi North 10.4 mph 18.4 mph N/A   Clear
9:51 AM 73.9 °F 29.5 °F 19% 30.33 in 10.0 mi North 8.1 mph 23.0 mph N/A   Clear
10:11 AM 74.7 °F 30.0 °F 19% 30.33 in 10.0 mi North 11.5 mph 19.6 mph N/A   Clear
10:31 AM 76.1 °F 30.2 °F 19% 30.33 in 10.0 mi North 6.9 mph 17.3 mph N/A   Clear
10:51 AM 75.6 °F 29.5 °F 18% 30.33 in 10.0 mi North 10.4 mph 17.3 mph N/A   Clear
11:11 AM 76.8 °F 28.9 °F 17% 30.33 in 10.0 mi North 10.4 mph - N/A   Clear
11:31 AM 77.2 °F 28.4 °F 17% 30.33 in 10.0 mi North 9.2 mph 17.3 mph N/A   Clear
11:51 AM 77.5 °F 28.2 °F 16% 30.32 in 10.0 mi NNE 8.1 mph 16.1 mph N/A   Clear
12:11 PM 77.5 °F 29.3 °F 17% 30.32 in 10.0 mi NE 6.9 mph - N/A   Clear
12:31 PM 78.1 °F 28.0 °F 16% 30.31 in 10.0 mi NNE 6.9 mph - N/A   Clear
12:51 PM 78.3 °F 28.4 °F 16% 30.31 in 10.0 mi East 3.5 mph - N/A   Clear
1:11 PM 77.5 °F 28.9 °F 17% 30.30 in 10.0 mi East 8.1 mph 16.1 mph N/A   Clear
1:31 PM 79.9 °F 28.9 °F 16% 30.30 in 10.0 mi North 10.4 mph 16.1 mph N/A   Scattered Clouds
2:31 PM 79.3 °F 27.9 °F 15% 30.29 in 10.0 mi ESE 8.1 mph - N/A   Overcast
2:51 PM 75.9 °F 28.2 °F 17% 30.29 in 10.0 mi SW 6.9 mph 16.1 mph N/A   Overcast
3:11 PM 75.6 °F 29.7 °F 18% 30.29 in 10.0 mi West 10.4 mph 16.1 mph N/A   Overcast
3:31 PM 73.6 °F 34.0 °F 23% 30.29 in 10.0 mi WNW 13.8 mph 32.2 mph N/A   Mostly Cloudy
3:51 PM 73.6 °F 36.5 °F 26% 30.28 in 10.0 mi WNW 16.1 mph 28.8 mph N/A   Mostly Cloudy
4:11 PM 76.1 °F 31.8 °F 20% 30.28 in 10.0 mi West 11.5 mph 27.6 mph N/A   Scattered Clouds
4:31 PM 77.7 °F 30.9 °F 18% 30.27 in 10.0 mi West 9.2 mph 27.6 mph N/A   Scattered Clouds
4:51 PM 77.5 °F 33.3 °F 20% 30.28 in 10.0 mi West 11.5 mph 24.2 mph N/A   Clear
5:31 PM 76.3 °F 31.1 °F 19% 30.27 in 10.0 mi West 6.9 mph - N/A   Clear
6:11 PM 75.4 °F 32.0 °F 20% 30.25 in 10.0 mi WSW 6.9 mph - N/A   Clear
6:31 PM 74.1 °F 32.0 °F 21% 30.25 in 10.0 mi WSW 6.9 mph - N/A   Clear
6:51 PM 72.5 °F 32.5 °F 23% 30.24 in 10.0 mi SSW 6.9 mph - N/A   Clear
7:11 PM 70.9 °F 33.6 °F 25% 30.24 in 10.0 mi SSW 4.6 mph - N/A   Clear
7:31 PM 68.4 °F 36.7 °F 31% 30.25 in 10.0 mi SW 3.5 mph - N/A   Clear
7:51 PM 66.2 °F 35.6 °F 32% 30.25 in 10.0 mi West 4.6 mph - N/A   Clear
8:11 PM 64.2 °F 35.4 °F 34% 30.25 in 10.0 mi WSW 4.6 mph - N/A   Clear
8:31 PM 63.3 °F 33.6 °F 33% 30.25 in 10.0 mi West 10.4 mph - N/A   Clear
8:51 PM 64.4 °F 33.1 °F 31% 30.25 in 10.0 mi WSW 3.5 mph - N/A   Clear
9:11 PM 57.2 °F 39.6 °F 52% 30.25 in 10.0 mi West 9.2 mph - N/A   Clear
9:31 PM 56.3 °F 39.4 °F 53% 30.25 in 10.0 mi West 11.5 mph - N/A   Clear
9:51 PM 55.4 °F 39.4 °F 55% 30.25 in 10.0 mi WNW 8.1 mph - N/A   Clear
10:11 PM 56.8 °F 36.7 °F 47% 30.25 in 10.0 mi NNW 8.1 mph - N/A   Clear
10:31 PM 56.3 °F 36.9 °F 48% 30.24 in 10.0 mi NW 10.4 mph - N/A   Clear
10:51 PM 56.3 °F 36.7 °F 48% 30.23 in 10.0 mi WNW 8.1 mph - N/A   Clear
11:11 PM 55.9 °F 36.0 °F 47% 30.22 in 10.0 mi WNW 8.1 mph - N/A   Clear
11:31 PM 55.8 °F 36.3 °F 48% 30.22 in 10.0 mi WNW 10.4 mph - N/A   Clear
11:51 PM 59.0 °F 33.3 °F 38% 30.22 in 10.0 mi WNW 8.1 mph - N/A   Clear